This is the latest recevied weather packets stored in our database for station/object VE7PRT-1. If no packets are shown the sender has not sent any weather packets the latest 10 day(s).
| Time | Temp. | Humidity | Pressure | Rain* | Wind** | Luminosity | Snow |
|---|---|---|---|---|---|---|---|
| 1777421064 | 13.33° C | 83% | 1023.8 hPa | 0 mm | - | - | - |
| 1777420249 | 13.33° C | 85% | 1023.7 hPa | 0 mm | - | - | - |
| 1777419499 | 13.33° C | 85% | 1023.7 hPa | 0 mm | - | - | - |
| 1777418640 | 13.89° C | 83% | 1023.8 hPa | 0 mm | - | - | - |
| 1777417749 | 14.44° C | 82% | 1023.9 hPa | 0 mm | - | - | - |
| 1777416974 | 14.44° C | 84% | 1023.9 hPa | 0 mm | - | - | - |
| 1777416194 | 13.89° C | 81% | 1023.8 hPa | 0 mm | - | - | - |
| 1777415434 | 13.33° C | 82% | 1024 hPa | 0 mm | - | - | - |
| 1777414539 | 13.33° C | 87% | 1024.1 hPa | 0 mm | - | - | - |
| 1777413764 | 13.33° C | 87% | 1024 hPa | 0 mm | - | - | - |
| 1777412907 | 13.33° C | 87% | 1024 hPa | 0 mm | - | - | - |
| 1777412129 | 12.78° C | 88% | 1023.9 hPa | 0 mm | - | - | - |
| 1777411266 | 12.78° C | 88% | 1023.8 hPa | 0 mm | - | - | - |
| 1777410419 | 12.78° C | 86% | 1023.7 hPa | 0 mm | - | - | - |
| 1777409626 | 13.33° C | 87% | 1023.6 hPa | 0 mm | - | - | - |
| 1777408794 | 13.33° C | 88% | 1023.4 hPa | 0 mm | - | - | - |
| 1777407974 | 13.33° C | 89% | 1023.2 hPa | 0 mm | - | - | - |
| 1777407126 | 12.78° C | 88% | 1022.9 hPa | 0 mm | - | - | - |
| 1777406247 | 12.78° C | 90% | 1023 hPa | 0 mm | - | - | - |
| 1777405461 | 12.78° C | 90% | 1022.9 hPa | 0 mm | - | - | - |
| 1777404686 | 12.22° C | 88% | 1022.9 hPa | 0 mm | - | - | - |
| 1777403954 | 12.78° C | 87% | 1022.8 hPa | 0 mm | - | - | - |
| 1777403061 | 13.33° C | 85% | 1022.7 hPa | 0 mm | - | - | - |
| 1777402189 | 13.33° C | 86% | 1022.6 hPa | 0 mm | - | - | - |
| 1777401419 | 13.33° C | 88% | 1022.6 hPa | 0 mm | - | - | - |
* Rain latest hour (hover to see other rain measurements)
** Current wind speed in m/s (hover to see current wind gust speed)